CST,Max TemperatureF,Mean TemperatureF,Min TemperatureF,Max Dew PointF,MeanDew PointF,Min DewpointF,Max Humidity, Mean Humidity, Min Humidity, Max Sea Level PressureIn, Mean Sea Level PressureIn, Min Sea Level PressureIn, Max VisibilityMiles, Mean VisibilityMiles, Min VisibilityMiles, Max Wind SpeedMPH, Mean Wind SpeedMPH, Max Gust SpeedMPH,PrecipitationIn, CloudCover, Events, WindDirDegrees
2012-11-1,82,76,69,72,68,66,94,77,58,30.08,30.00,29.92,7,7,4,7,3,,0.00,5,,102
2012-11-2,80,74,68,70,67,66,94,76,61,30.04,29.98,29.90,7,6,6,8,1,,0.00,7,,189
2012-11-3,80,74,68,72,68,66,94,76,61,30.04,29.98,29.93,7,6,4,7,3,,0.00,8,,197
2012-11-4,82,76,71,72,70,68,88,79,66,30.06,29.99,29.92,7,6,5,10,4,,0.00,7,,11
2012-11-5,80,74,68,70,68,66,94,85,65,30.12,30.03,29.96,7,5,2,9,4,,1.45,8,Rain,336
2012-11-6,82,75,68,72,69,66,94,80,65,30.11,30.05,29.97,7,7,6,10,5,,0.00,5,Rain,341
2012-11-7,84,76,68,82,68,66,100,76,55,30.15,30.08,30.01,7,7,6,10,4,,0.00,3,Rain,4
2012-11-8,82,75,68,68,64,63,88,70,51,30.16,30.08,29.99,7,7,7,9,5,,0.00,2,,348
2012-11-9,82,73,64,66,64,61,94,71,48,30.10,30.03,29.92,7,7,7,10,3,,0.00,1,,133
2012-11-10,82,73,64,68,64,61,94,72,48,30.07,29.99,29.91,7,7,6,12,5,,0.00,3,,175
2012-11-11,84,73,62,70,66,61,94,75,54,30.02,29.93,29.84,7,7,5,10,5,,0.00,2,,172
2012-11-12,82,75,68,72,68,64,94,80,62,30.13,30.04,29.95,7,6,5,21,7,,1.40,6,Rain,13
2012-11-13,77,72,68,66,66,64,88,79,65,30.19,30.11,30.02,7,7,5,14,7,,0.00,8,,2
2012-11-14,78,73,68,68,67,66,94,80,65,30.18,30.11,30.02,7,7,7,16,5,,0.00,6,,5
2012-11-15,80,74,68,70,67,64,94,81,61,30.15,30.10,30.04,7,7,6,16,6,,1.95,6,Rain,1
2012-11-16,80,73,66,70,67,64,94,80,61,30.16,30.10,30.02,7,7,6,12,5,,0.00,6,,1
2012-11-17,80,74,69,70,68,66,94,86,61,30.20,30.13,30.05,7,5,1,17,8,,1.05,8,Rain,1
2012-11-18,77,72,68,68,66,64,88,84,74,30.20,30.15,30.10,7,7,2,14,4,,0.05,7,,13
2012-11-19,78,72,66,68,65,63,94,77,57,30.19,30.12,30.06,7,7,6,12,4,,0.00,3,Rain,2
2012-11-20,80,72,64,68,64,61,88,72,54,30.16,30.10,30.02,7,7,7,14,6,,0.00,5,,7
2012-11-21,80,74,69,68,65,63,88,72,57,30.17,30.10,30.02,7,7,5,15,7,,0.00,6,,4
2012-11-22,80,74,68,68,66,64,88,78,58,30.13,30.08,30.01,7,7,7,14,5,,0.00,5,,55
2012-11-23,80,74,68,70,65,61,94,75,51,30.17,30.11,30.04,7,7,6,9,4,,0.00,5,Rain,14
2012-11-24,75,70,66,68,65,63,94,84,65,30.24,30.16,30.05,7,6,2,13,4,,0.35,7,Rain,320
2012-11-25,77,72,66,66,64,63,94,81,65,30.20,30.07,29.98,7,7,7,9,2,,0.00,5,,167
2012-11-26,80,71,62,66,62,59,94,73,51,30.08,30.02,29.96,7,7,5,9,4,,0.00,5,,162
2012-11-27,82,73,64,68,65,61,88,73,54,30.23,30.13,30.03,7,7,7,15,6,,0.00,6,,11
2012-11-28,80,74,68,68,67,64,94,78,58,30.27,30.20,30.11,7,7,7,17,6,,0.00,4,,8
2012-11-29,78,71,64,70,66,63,94,81,65,30.17,30.11,30.00,7,6,2,9,2,,0.00,4,,46
2012-11-30,80,73,66,70,67,64,94,82,65,30.14,30.08,30.01,7,7,6,9,2,,0.00,5,,41